[Iaude] MPEC F56: 2019 FH [a=1.52,e=0.77,i=3.8,H=20.3,PHA]

mpec at mpcdb1.cfa.harvard.edu mpec at mpcdb1.cfa.harvard.edu
Thu Mar 21 16:03:17 EDT 2019


M.P.E.C. 2019-F56                                Issued 2019 Mar. 21, 19:59 UT
 
     The Minor Planet Electronic Circulars contain information on unusual
         minor planets and routine data on comets.  They are published
    on behalf of Division F of the International Astronomical Union by the
          Minor Planet Center, Smithsonian Astrophysical Observatory,
                          Cambridge, MA 02138, U.S.A.

             Prepared using the Tamkin Foundation Computer Network

                              MPC at CFA.HARVARD.EDU
            URL https://www.minorplanetcenter.net/    ISSN 1523-6714


                                    2019 FH
 
Observations:
     K19F00H* C2019 03 18.35690208 10 49.57 -09 43 03.3          18.12oVEF056T08
     K19F00H  C2019 03 18.36511508 10 55.94 -09 42 15.3          18.13oVEF056T08
     K19F00H  C2019 03 18.37343208 11 02.43 -09 41 26.5          18.27oVEF056T08
     K19F00H  C2019 03 18.38189608 11 08.89 -09 40 35.7          18.16oVEF056T08
     K19F00H KC2019 03 18.92503 08 18 01.75 -08 50 14.6          18.5 RVEF056K61
     K19F00H KC2019 03 18.92703 08 18 03.19 -08 50 04.0          18.7 RVEF056K61
     K19F00H |C2019 03 19.04514 08 19 30.00 -08 38 30.3          17.8 VuEF056807
     K19F00H |C2019 03 19.04911 08 19 32.73 -08 38 09.4          17.9 VuEF056807
     K19F00H |C2019 03 19.05299 08 19 35.40 -08 37 48.8          17.9 VuEF056807
     K19F00H KC2019 03 19.16125 08 20 51.57 -08 29 24.7          17.6 GVEF056V01
     K19F00H KC2019 03 19.17069 08 20 57.94 -08 28 35.8          17.7 GVEF056V01
     K19F00H KC2019 03 19.18056 08 21 04.60 -08 27 44.9          17.6 GVEF056V01
     K19F00H  C2019 03 19.50263 08 24 42.26 -08 00 34.9          18.2 RrEF056P93
     K19F00H  C2019 03 19.51150 08 24 47.94 -07 59 52.4          18.0 RrEF056P93
     K19F00H  C2019 03 19.51329 08 24 49.10 -07 59 43.3          18.1 RrEF056P93
     K19F00H  C2019 03 19.52217 08 24 54.82 -07 58 57.9          18.4 RrEF056P93
     K19F00H  C2019 03 19.55445 08 25 15.19 -07 56 21.1          18.5 VtEF056900
     K19F00H  C2019 03 19.56949 08 25 24.74 -07 55 07.3          18.3 VtEF056900
     K19F00H KC2019 03 19.81262 08 28 01.77 -07 35 52.0          18.6 GVEF056K87
     K19F00H KC2019 03 19.81477 08 28 03.07 -07 35 41.8          18.7 GVEF056K87
     K19F00H KC2019 03 19.81688 08 28 04.37 -07 35 31.9          18.4 GVEF056K87
     K19F00H KC2019 03 19.81897 08 28 05.65 -07 35 22.0          18.6 GVEF056K87
     K19F00H KC2019 03 19.82105 08 28 06.91 -07 35 12.3          18.7 GVEF056K87
     K19F00H KC2019 03 19.82311 08 28 08.16 -07 35 02.6          18.6 GVEF056K87
     K19F00H KC2019 03 19.82722 08 28 10.67 -07 34 43.5          18.6 GVEF056K87
     K19F00H KC2019 03 19.85760 08 28 29.20 -07 32 19.2          18.0 GVEF056K38
     K19F00H KC2019 03 19.87396 08 28 39.09 -07 31 02.8          18.1 GVEF056203
     K19F00H KC2019 03 19.87938 08 28 42.36 -07 30 37.4          18.2 GVEF056K38
     K19F00H KC2019 03 19.88178508 28 44.21 -07 30 25.0          18.2 VqEF056I93
     K19F00H KC2019 03 19.88724 08 28 47.08 -07 30 00.7          18.0 GVEF056203
     K19F00H KC2019 03 19.88806408 28 47.98 -07 29 56.2          18.2 VqEF056I93
     K19F00H KC2019 03 19.89400 08 28 51.17 -07 29 28.8          18.1 GVEF056K38
     K19F00H KC2019 03 19.89568 08 28 52.21 -07 29 21.4                VEF056204
     K19F00H KC2019 03 19.90232 08 28 56.21 -07 28 49.8          18.2 GVEF056203
     K19F00H HC2019 03 19.90320 08 28 56.74 -07 28 46.3                VEF056204
     K19F00H KC2019 03 19.90687 08 28 58.97 -07 28 29.0          18.4 GVEF056204
     K19F00H KC2019 03 19.90881108 29 00.43 -07 28 19.1          18.4 VqEF056I93
     K19F00H KC2019 03 19.98644208 29 47.24 -07 22 24.2          18.3 GVEF056J95
     K19F00H KC2019 03 19.98887908 29 48.69 -07 22 13.7          18.4 GVEF056J95
     K19F00H KC2019 03 19.99133408 29 50.15 -07 22 01.5          18.3 GVEF056J95
     K19F00H KC2019 03 20.02075 08 30 10.78 -07 19 39.3          18.1 GVEF056W34
     K19F00H KC2019 03 20.03086 08 30 16.68 -07 18 52.6          18.4 GVEF056W34
     K19F00H KC2019 03 20.04284 08 30 23.75 -07 17 58.5          18.5 GVEF056W34
     K19F00H KC2019 03 20.05395 08 30 30.21 -07 17 08.4          18.6 GVEF056W34
     K19F00H KC2019 03 20.06363 08 30 35.84 -07 16 24.0          18.2 GVEF056W34
     K19F00H KC2019 03 20.75873 08 37 12.34 -06 26 37.1          17.8 RoEF056K88
     K19F00H KC2019 03 20.76280 08 37 14.49 -06 26 20.1          17.7 RoEF056K88
     K19F00H KC2019 03 20.76686 08 37 16.63 -06 26 03.6          17.7 RoEF056K88
     K19F00H KC2019 03 20.77198 08 37 19.33 -06 25 42.7          18.0 RoEF056K88
     K19F00H KC2019 03 20.77605 08 37 21.49 -06 25 26.3          18.1 RoEF056K88
     K19F00H KC2019 03 20.81086 08 37 40.04 -06 23 03.4          17.7 RVEF056K51
     K19F00H KC2019 03 20.81221 08 37 40.75 -06 22 57.9          17.6 RVEF056K51
     K19F00H KC2019 03 20.81356 08 37 41.46 -06 22 52.4          17.6 RVEF056K51
     K19F00H KC2019 03 20.82673 08 37 48.42 -06 22 01.4          18.0 GVEF056K87
     K19F00H KC2019 03 20.82854 08 37 49.35 -06 21 53.9          17.9 GVEF056K87
     K19F00H KC2019 03 20.83015 08 37 50.19 -06 21 47.4          17.6 GVEF056K87
     K19F00H |C2019 03 21.02929 08 39 35.54 -06 07 33.2          18.4 GUEF056807
     K19F00H |C2019 03 21.03017 08 39 35.98 -06 07 29.8          18.4 GUEF056807
     K19F00H |C2019 03 21.03105 08 39 36.42 -06 07 26.3          18.4 GUEF056807
     K19F00H |C2019 03 21.03193 08 39 36.87 -06 07 22.9          18.4 GUEF056807
     K19F00H |C2019 03 21.03281 08 39 37.32 -06 07 19.4          18.3 GUEF056807
     K19F00H  C2019 03 21.77036 08 45 40.51 -05 22 20.3                VEF056246
     K19F00H  C2019 03 21.77056 08 45 40.57 -05 22 19.7                VEF056246
     K19F00H  C2019 03 21.77116 08 45 40.87 -05 22 17.0                VEF056246
     K19F00H  C2019 03 21.77130 08 45 40.96 -05 22 16.8                VEF056246
     K19F00H  C2019 03 21.77144 08 45 41.03 -05 22 16.2                VEF056246
     K19F00H  C2019 03 21.77159 08 45 41.08 -05 22 16.2          17.2 GVEF056246
     K19F00H  C2019 03 21.77172 08 45 41.12 -05 22 15.7                VEF056246
     K19F00H  C2019 03 21.77188 08 45 41.19 -05 22 14.8                VEF056246
     K19F00H  C2019 03 21.77220 08 45 41.37 -05 22 13.5                VEF056246
     K19F00H KC2019 03 21.79294 08 45 51.30 -05 20 56.8          18.5 RVEF056B74
     K19F00H KC2019 03 21.79681 08 45 53.08 -05 20 43.0          18.5 RVEF056B74
     K19F00H KC2019 03 21.80188 08 45 55.38 -05 20 24.9          18.5 RVEF056B74
 
Observer details:
203 GiaGa Observatory.  Observers S. Foglia, G. Galli.  Measurer G. Galli.
    0.36-m f/5.76 Schmidt-Cassegrain + CCD.
204 Schiaparelli Observatory.  Observer L. Buzzi.  0.84-m f/3.5 reflector +
    CCD.
246 Klet Observatory-KLENOT.  Observers M. Tichy, J. Ticha.  1.06-m f/5.2
    reflector + 2048x2048 CCD.
807 Cerro Tololo Observatory, La Serena.  Observers T. Linder, R. Holmes.
    0.61-m f/6.5 astrograph + CCD, 1.00-m f/10.0 astrograph + CCD.
900 Moriyama.  Observer Y. Ikari.  0.26-m f/7.0 reflector + CCD.
B74 Santa Maria de Montmagastrell.  Observer J. M. Bosch.  0.4-m f/1.2
    Schmidt-Cassegrain + CCD.
I93 St Pardon de Conques.  Observer F. Losse.  0.40-m f/3.7 reflector + CCD.
J95 Great Shefford.  Observer P. Birtwhistle.  0.41-m f/6.3
    Schmidt-Cassegrain + CCD.
K38 M57 Observatory, Saltrio.  Observer G. Baj.  0.3-m f/5.5 Ritchey-Chretien
    + CCD.
K51 Osservatorio del Celado, Castello Tesino.  Observers G. Favero,
    R. Furgoni.  Measurer R. Furgoni.  0.80-m f/4 reflector + CCD.
K61 Rokycany Observatory.  Observers M. Adamovsky, L. Machuldova.  Measurer
    M. Adamovsky.  0.51-m f/6.8 reflector + CCD.
K87 Dettelbach Vineyard Observatory.  Observer B. Haeusler.  0.30-m
    Schmidt-Cassegrain + CCD.
K88 GINOP-KHK, Piszkesteto.  Observer K. Sarneczky.  0.60-m Schmidt + CCD.
P93 Space Tracking and Communications Center, JAXA.  Observers S. Urakawa,
    T. Nimura.  1.0-m f/3.0 reflector + CCD.
T08 ATLAS-MLO, Mauna Loa.  Observers L. Denneau, J. Tonry, A. Heinze,
    H. Weiland, H. Flewelling.  Measurers L. Denneau, J. Tonry, A. Heinze,
    H. Weiland, H. Flewelling, B. Stalder, A. Fitzsimmons, D. Young,
    N. Erasmus.  0.5-m reflector + CCD.
V01 Mountainville Observatory, Alpine.  Observer B. Sheets.  0.35-m
    Schmidt-Cassegrain + CCD.
W34 Squirrel Valley Observatory, Columbus.  Observer R. L. Flynn.  0.2-m
    f/7.0 Schmidt-Cassegrain + CCD.
 
Orbital elements:
2019 FH                                             PHA, Earth MOID = 0.0350 AU
Epoch 2019 Apr. 27.0 TT = JDT 2458600.5                 MPC
M  48.10966              (2000.0)            P               Q
n   0.52660912     Peri.  152.01326     +0.67461419     -0.73531775
a   1.5187180      Node   255.48333     +0.66414274     +0.64295100
e   0.7726711      Incl.    3.84012     +0.32219577     +0.21429376
P   1.87           H   20.3           G   0.15           U   9
Residuals in seconds of arc
190318 T08  1.3+  0.1+    190319 K38  0.6+  0.3-    190320 K51  0.2-  0.0
190318 T08  1.0+  0.2-    190319 203  0.4+  0.5-    190320 K51  0.1-  0.0
190318 T08  1.3+  0.3-    190319 K38  0.2+  0.2-    190320 K51  0.0   0.0
190318 T08  0.4-  0.8+    190319 I93  0.6+  0.4+    190320 K87  0.6+  0.6-
190318 K61 (5.3-  1.4+)   190319 203  0.1-  0.4-    190320 K87  0.4+  0.4-
190318 K61 (5.1-  1.2+)   190319 I93  0.3+  0.1-    190320 K87  0.4+  0.4-
190319 807  0.6+  0.2-    190319 K38  0.1-  0.2+    190321 807  0.2-  0.1-
190319 807  0.5+  0.3-    190319 204  0.2+  0.2-    190321 807  0.3-  0.2-
190319 807  0.4+  0.1-    190319 203  0.3+  0.3+    190321 807  0.3-  0.1-
190319 V01  0.3+  0.0     190319 204  0.1+  0.1-    190321 807  0.2-  0.2-
190319 V01  0.2-  0.0     190319 204  0.4+  0.1+    190321 807  0.0   0.2-
190319 V01  0.5-  0.2-    190319 I93  0.3-  0.6+    190321 246  0.2-  0.2+
190319 P93  0.1+  0.3+    190319 J95  0.1+  0.2+    190321 246  0.6-  0.1+
190319 P93  0.3+  0.9-    190319 J95  0.0   0.6-    190321 246  0.2-  0.6+
190319 P93  0.6+  0.6-    190319 J95  0.2-  0.3+    190321 246  0.2+  0.3+
190319 P93  1.3+  1.1+    190320 W34  0.6+  0.4-    190321 246  0.3+  0.4+
190319 900  0.2+  0.5-    190320 W34  0.1-  0.3+    190321 246  0.0   0.1-
190319 900  0.1+  0.4-    190320 W34  0.4+  0.1+    190321 246  0.3-  0.0
190319 K87  0.7+  0.2-    190320 W34  0.3-  0.2-    190321 246  0.3-  0.3+
190319 K87  0.5+  0.1-    190320 W34  0.7-  0.4+    190321 246  0.2+  0.5+
190319 K87  0.6+  0.1-    190320 K88  0.4-  0.3-    190321 B74  0.3-  0.0
190319 K87  0.7+  0.0     190320 K88  0.3-  0.0     190321 B74  0.1+  0.2+
190319 K87  0.5+  0.1-    190320 K88  0.3-  0.0     190321 B74  0.2+  0.4+
190319 K87  0.4+  0.1-    190320 K88  0.2-  0.0
190319 K87  0.4+  0.3-    190320 K88  0.0   0.2-

Ephemeris:
2019 FH                  a,e,i = 1.52, 0.77, 4                   q = 0.3452
Date    TT    R. A. (2000) Decl.     Delta      r     Elong.  Phase     V
2019 02 19    23 08 01.4 -12 57 26   0.3447  0.6611    14.8   157.5    27.3
...
2019 03 06    01 26 48.8 -25 00 05   0.1161  0.9048    39.1   136.3    21.8
...
2019 03 14    06 40 25.1 -19 25 31   0.1015  1.0245   104.7    69.8    17.8
...
2019 03 20    08 29 56.5 -07 20 43   0.1712  1.1095   128.1    44.9    18.4
2019 03 21    08 39 19.3 -06 09 51   0.1852  1.1233   129.7    43.0    18.6
2019 03 22    08 47 25.0 -05 08 26   0.1995  1.1369   130.9    41.4    18.7
...
2019 03 28    09 19 37.9 -01 08 41   0.2904  1.2168   133.7    36.4    19.5
...
2019 04 05    09 42 55.7 +01 21 33   0.4200  1.3178   131.8    34.5    20.4
...
2019 04 20    10 09 14.5 +03 00 31   0.6802  1.4917   123.5    34.2    21.8

A. U. Tomatic                (C) Copyright 2019 MPC           M.P.E.C. 2019-F56



More information about the Iaude mailing list